Wind_Speed
21 25 20 21 19 18 19 17 15 14 16 20 18 17 13 10 9 9 12 13 12 12 13 13 13 12 12 12 12 12 12 12 12
20 26 22 19 17 16 16 15 14 14 17 19 16 15 12 12 8 9 11 12 11 11 12 12 12 12 12 12 12 11 12 12 12
22 24 21 19 18 18 17 14 13 14 18 18 15 15 13 12 6 7 9 10 10 10 10 10 10 10 10 10 10 10 11 11 12
24 22 21 19 18 17 18 15 14 15 16 15 15 13 12 9 5 7 8 9 8 8 8 8 9 9 9 9 9 9 10 10 10
22 22 21 20 19 18 17 15 14 14 14 14 14 11 11 7 6 6 5 6 7 6 6 6 7 7 7 8 8 9 9 8 8
23 23 21 21 21 20 19 16 13 12 11 11 12 12 9 8 5 3 2 4 5 5 4 4 4 5 5 5 7 7 8 7 8
23 24 22 21 20 20 18 16 13 11 10 9 10 9 8 7 7 4 2 4 5 3 3 3 2 3 3 3 4 5 5 5 7
26 25 24 22 20 20 18 16 14 12 10 7 6 7 6 9 7 5 3 4 5 4 3 1 0 1 2 2 2 3 3 3 4
29 27 27 25 22 20 18 15 13 12 10 7 6 6 6 8 10 5 5 4 5 5 4 4 3 3 3 4 4 3 2 1 1
29 28 27 25 23 21 17 14 13 12 9 8 9 8 10 8 10 9 7 4 5 5 6 6 6 7 7 8 8 7 6 4 3
29 27 29 27 24 21 17 15 12 12 11 12 12 10 10 11 12 12 6 7 5 6 6 6 7 8 9 10 11 11 9 9 6
27 25 26 26 23 21 17 16 14 14 14 14 13 12 13 12 11 10 9 9 8 7 6 6 7 7 9 11 10 11 10 10 9
26 24 25 24 21 22 20 18 17 16 15 14 15 14 15 14 15 12 13 12 10 9 8 7 8 9 10 12 11 10 10 9 9
31 25 27 24 24 23 20 19 18 16 15 14 14 16 15 14 13 12 13 12 12 9 8 6 8 9 9 8 10 10 9 9 9
31 27 25 25 23 22 21 19 18 18 17 16 14 15 14 17 15 14 12 15 11 9 8 6 9 7 8 7 8 10 8 11 11
30 29 26 25 26 25 21 19 19 18 15 15 15 15 15 15 15 15 12 14 11 8 7 7 6 7 5 6 5 5 6 8 10
32 28 27 26 23 26 23 21 19 17 18 11 4 2 8 20 21 19 17 15 10 7 7 7 7 7 5 5 6 6 6 8 8
32 31 29 25 24 21 23 22 22 20 17 20 6 2 4 3 14 16 21 17 12 7 9 9 6 7 7 5 4 4 8 7 7
25 26 29 26 23 20 24 22 21 17 15 12 15 6 4 2 2 11 15 15 12 11 11 9 7 7 7 7 5 5 8 9 7
30 23 25 21 22 21 25 23 24 21 21 22 14 14 13 10 1 3 5 11 9 7 10 10 7 6 6 7 6 5 6 8 7
Wind_Direction
163 157 152 145 140 147 142 141 142 139 135 133 123 114 112 114 111 93 98 93 89 84 80 79 75 72 71 69 67 65 64 62 62
163 157 154 152 153 147 144 147 145 143 140 137 126 119 121 129 99 93 101 97 93 90 86 81 77 73 69 67 68 67 64 62 62
163 156 159 161 160 164 156 154 146 142 145 142 132 124 118 136 98 84 101 101 97 92 88 85 79 73 70 68 67 65 64 63 63
166 161 163 166 170 159 163 160 150 146 149 149 142 132 133 134 124 103 102 108 103 96 90 82 75 67 61 60 61 61 59 60 60
166 168 169 163 164 167 169 165 158 152 151 151 152 140 134 142 126 128 103 121 118 107 94 81 72 63 58 60 57 55 55 51 55
168 174 174 169 172 176 172 171 166 162 160 157 152 147 142 145 166 148 132 150 139 126 108 92 71 57 55 56 52 47 46 42 43
174 178 178 175 183 180 177 174 172 171 162 160 160 157 157 174 177 200 215 182 170 161 131 109 92 59 55 54 43 40 42 41 46
178 181 179 182 187 181 181 178 177 173 169 164 170 170 182 175 204 220 239 212 194 189 202 175 159 20 26 359 7 24 41 34 47
180 186 184 185 191 189 188 188 184 182 191 203 187 205 193 207 210 221 234 230 219 209 215 238 263 277 291 288 290 306 324 337 16
185 187 188 189 196 195 195 196 192 187 199 218 214 228 208 210 215 214 211 239 223 219 226 239 255 272 278 280 280 284 283 284 293
188 192 199 200 198 195 191 192 196 207 205 215 214 223 222 223 237 209 224 233 225 232 240 252 262 268 264 262 274 271 268 268 274
191 196 196 194 190 194 202 200 208 202 214 220 222 222 215 229 229 216 234 235 228 238 236 250 267 278 279 272 263 270 272 266 254
194 199 196 192 195 193 188 197 203 216 215 212 224 231 224 231 231 231 227 232 239 237 223 242 259 274 283 276 269 265 261 261 244
200 201 193 188 193 197 200 202 209 209 212 220 222 230 236 225 234 240 229 234 233 203 204 243 258 274 282 289 264 261 259 246 233
202 201 197 202 202 199 202 205 211 220 222 225 231 236 245 229 230 231 234 238 211 193 220 248 270 261 256 269 276 260 253 227 225
202 205 202 198 200 199 200 203 208 211 214 221 232 237 238 227 231 232 230 190 195 220 245 252 239 252 245 268 296 256 220 220 221
198 197 195 198 199 202 202 205 209 216 212 205 208 220 232 232 232 229 216 189 193 214 240 230 244 262 252 265 281 252 225 193 195
201 203 199 201 205 202 202 208 213 211 210 219 191 149 215 225 226 212 192 185 186 195 211 228 252 267 270 273 275 225 184 186 190
207 212 213 202 204 202 204 209 211 205 193 191 215 183 92 12 316 183 182 179 191 201 202 215 232 250 270 273 267 238 219 211 209
203 204 224 217 215 218 220 212 219 240 224 210 203 212 221 210 83 274 174 164 177 206 209 211 216 239 261 275 267 258 231 213 203
Height
814 816 819 821 822 823 825 827 829 831 833 834 835 837 839 839 839 840 840 841 842 842 842 842 842 841 841 840 840 840 839 838 838
813 816 819 822 823 824 826 828 830 832 834 836 837 838 839 840 841 841 842 843 843 843 843 843 843 843 843 843 842 841 841 840 840
814 816 820 822 824 825 827 829 830 832 834 836 838 839 840 841 842 842 843 844 845 845 844 844 844 844 844 843 843 843 842 842 841
815 818 820 822 824 825 828 829 831 832 835 837 838 840 841 841 842 843 843 845 846 846 845 845 845 845 845 845 844 844 844 843 842
816 818 820 822 824 826 828 830 831 833 835 836 838 840 842 842 843 843 844 845 845 846 847 847 846 846 846 845 846 845 845 844 843
816 818 820 822 825 826 828 830 832 834 835 837 838 840 842 843 843 844 844 844 845 845 846 847 847 847 847 846 846 846 845 845 844
815 817 819 822 824 826 828 829 831 834 836 837 838 840 841 842 844 844 844 844 845 845 846 846 846 846 846 847 846 846 845 845 844
813 816 818 820 823 825 827 828 830 833 835 837 838 839 840 840 842 843 844 844 844 845 846 846 846 846 846 846 846 846 845 845 844
810 814 816 818 821 823 826 828 829 831 834 835 837 838 839 839 840 841 842 843 843 844 845 845 845 845 846 846 846 845 844 844 843
809 811 815 817 819 822 824 827 828 830 832 834 835 836 837 838 838 839 840 841 842 842 843 844 844 844 844 845 845 845 845 844 843
806 810 812 815 817 820 822 824 827 828 830 831 833 834 836 836 836 837 838 839 840 840 841 842 842 842 842 842 843 843 842 842 842
805 808 809 811 813 817 819 822 825 826 827 830 831 832 833 835 835 835 837 837 837 838 839 840 840 840 840 839 839 839 841 841 840
803 804 806 808 811 815 816 819 821 824 825 826 828 829 831 832 833 833 834 835 834 835 836 837 837 837 837 836 837 837 837 839 839
801 802 804 806 809 811 813 815 818 820 822 823 825 826 828 829 831 831 831 832 832 832 834 834 835 834 835 834 834 834 835 836 836
797 799 801 803 806 808 810 812 814 817 819 821 823 823 825 826 828 829 829 830 830 830 831 831 832 832 832 833 832 831 832 832 834
793 795 797 799 801 803 805 808 810 812 816 818 819 819 821 824 824 826 826 828 828 829 829 829 829 830 830 831 830 829 829 831 833
788 791 793 795 797 799 800 803 806 809 811 813 817 819 819 818 820 820 823 823 825 826 827 828 827 828 829 828 829 829 828 829 831
781 785 788 791 792 794 796 799 802 802 805 809 813 817 818 816 816 816 819 819 821 823 825 826 826 827 826 826 827 828 828 828 829
776 780 782 784 786 789 790 793 795 797 800 805 807 810 814 817 817 815 817 816 818 820 822 823 823 823 824 825 826 827 827 827 828
770 775 780 779 782 783 785 782 791 793 796 800 802 804 808 812 819 816 812 813 817 819 820 820 821 822 822 823 824 825 825 826 825